Location: Peterborough
(44.3091°N, 78.3197°W)
Time: 23:08:31
(UTC-04:00)

Altair - Pass Details

Date: 05 August 2024
Orbit: 1501 x 1682 km, 47.2° (Epoch: 19 September)

Event Time Altitude Azimuth Distance (km) Brightness Sun altitude
Rises 22:53:27 0° 289° (WNW) 4,671 11.0 -20.6°
Reaches altitude 10° 22:57:54 10° 270° (W) 3,665 9.9 -21.1°
Maximum altitude 23:03:07 17° 235° (SW) 3,144 9.1 -21.7°
Enters shadow 23:08:13 10° 200° (SSW) 3,624 9.1 -22.2°
